Wind Cave National Park, SD

4:41 AM MDT on July 27, 2016 (GMT -0600)
Hay Creek Road | | Change Station

Elev 5325 ft 43.70 °N, 103.67 °W | Updated 27 seconds ago

Overcast
Overcast
56.8 °F
Feels Like 56.8 °F
N
0.0
Wind Variable Wind from ESE
Gusts 0.0 mph

Today
High -- | Low -- °F
--% Chance of Precip.
Yesterday
High -- | Low -- °F
Precip. -- in
Pressure 30.04 in
Visibility 10.0 miles
Clouds Few 9000 ft
Overcast 11000 ft
Dew Point 57 °F
Humidity 99%
Rainfall 0.00 in
Snow Depth Not available.
5:38 AM 8:22 PM
Last Quarter, 44% visible
METAR KCUT 270953Z AUTO 32003KT 10SM FEW090 OVC110 14/12 A3024 RMK AO2 LTG DSNT SE SLP170 T01440122
Pressure 30.04 in
Visibility 10.0 miles
Clouds Few 9000 ft
Overcast 11000 ft
Dew Point 57 °F
Humidity 99%
Rainfall 0.00 in
Snow Depth Not available.
5:38 AM 8:22 PM
Last Quarter, 44% visible
METAR KCUT 270953Z AUTO 32003KT 10SM FEW090 OVC110 14/12 A3024 RMK AO2 LTG DSNT SE SLP170 T01440122

10-Day Weather Forecast

Almanac

Astronomy

Jul. 27, 2016 Rise Set
Actual Time
Civil Twilight
Nautical Twilight
Astronomical Twilight
Moon
Length of Visible Light
Length of Day
Tomorrow will be .
, % of the Moon is Illuminated

Today's Extremes

State Highs State Lows

Community

WunderPhotos

Upload Photos

1,927,825 photos uploaded!

WunderBlog® & News

Nearby

Air Quality

  Air Quality AQ Index Pollutant
Not available.

Snow Depth

Station Depth Elevation

Earthquake Activity

City Distance Mag. Time & Date
Minimum magnitude displayed is 2.5.

Coastal Water Temperatures

Place Temperature

Stations

Nearby Weather Stations

Station Location Temp. Windchill Dew Point Humidity Wind Precip. Elev Updated Type
                   

Watches & Warnings

There are currently no watches in effect.